Location: Newark
(35.2672°N, 80.7344°W)
Time: 00:33:15
(UTC+00:00)

Vanguard 2 Rocket - Pass Details

Date: 24 January 2020
Orbit: 553 x 3327 km, 32.9° (Epoch: 24 February)

Event Time Altitude Azimuth Distance (km) Brightness Sun altitude
Rises 17:04:23 0° 273° (W) 4,604 10.4 35.0°
Reaches altitude 10° 17:07:35 10° 261° (W) 3,985 10.3 35.1°
Maximum altitude 17:16:36 28° 208° (SSW) 3,624 11.2 35.3°
Drops below altitude 10° 17:29:43 10° 158° (SSE) 5,856 12.2 35.5°
Sets 17:35:54 0° 149° (SSE) 7,144 12.2 35.5°
